Weather History for Hurlburt Field, FL

Change the Weather History Date:

Tuesday, February 25, 2014

  Actual Average Record
Temperature  
Mean Temperature 62 °F -  
Max Temperature 71 °F 64 °F 75 °F (2001)
Min Temperature 52 °F 46 °F 37 °F (1999)
Degree Days  
Heating Degree Days 4    
Growing Degree Days 12 (Base 50)    
Moisture  
Dew Point 52 °F    
Average Humidity 73    
Maximum Humidity 88    
Minimum Humidity 46    
Precipitation  
Precipitation 0.00 in - - ()
Sea Level Pressure  
Sea Level Pressure 30.02 in    
Wind  
Wind Speed 3 mph (WSW)    
Max Wind Speed 10 mph    
Max Gust Speed -    
Visibility 9 miles    
Events Rain    
Averages and records for this station are not official NWS values.
T = Trace of Precipitation, MM = Missing Value Source: NWS Daily Summary

Daily Weather History Graph

Daily Weather History Graph

Search for Another Location

Airport:

Trip Planner

Search our weather history database for the weather conditions in past years. The results will help you decide how hot, cold, wet, or windy it might be!

Date:

Astronomy

Feb. 25, 2014 Rise Set
Actual Time 6:17 AM CST 5:42 PM CST
Civil Twilight 5:53 AM CST 6:06 PM CST
Nautical Twilight 5:25 AM CST 6:34 PM CST
Astronomical Twilight 4:57 AM CST 7:02 PM CST
Moon 3:00 AM CST (2/25) 1:58 PM CST (2/25)
Length of Visible Light 12h 13m
Length of Day
11h 25m
Waning Crescent, 18% of the Moon is Illuminated
Feb 25
Waning Crescent
Mar 1
New
Mar 8
First Quarter
Mar 16
Full
Mar 23
Last Quarter

Hourly Weather History & Observations

Time (CST) Temp. Dew Point Humidity Pressure Visibility Wind Dir Wind Speed Gust Speed Precip Events Conditions
12:58 AM 57.4 °F 52.7 °F 84% 30.05 in 9.0 mi Calm Calm - N/A   Clear
1:58 AM 56.3 °F 51.4 °F 84% 30.05 in 10.0 mi North 2.3 mph - N/A   Clear
2:08 AM 55.4 °F 50.0 °F 82% 30.05 in 9.0 mi North 5.8 mph - N/A   Clear
2:18 AM 55.4 °F 50.0 °F 82% 30.05 in 4.0 mi Calm Calm - N/A   Haze
2:28 AM 53.6 °F 50.0 °F 88% 30.04 in 5.0 mi Calm Calm - N/A   Haze
2:43 AM 55.4 °F 51.8 °F 88% 30.04 in 4.0 mi North 2.3 mph - N/A   Haze
2:48 AM 55.4 °F 50.0 °F 82% 30.04 in 2.0 mi NNW 2.3 mph - N/A   Haze
2:58 AM 55.2 °F 50.9 °F 85% 30.05 in 2.0 mi NNE 2.3 mph - N/A   Haze
3:12 AM 53.6 °F 50.0 °F 88% 30.03 in 5.0 mi North 3.5 mph - N/A   Haze
3:24 AM 53.6 °F 50.0 °F 88% 30.03 in 10.0 mi NNW 3.5 mph - N/A   Clear
3:58 AM 53.2 °F 49.3 °F 86% 30.04 in 10.0 mi Calm Calm - N/A   Clear
4:58 AM 52.9 °F 48.9 °F 86% 30.05 in 10.0 mi North 4.6 mph - N/A   Partly Cloudy
5:58 AM 53.1 °F 48.7 °F 85% 30.07 in 10.0 mi NW 2.3 mph - N/A   Overcast
6:58 AM 54.0 °F 49.1 °F 84% 30.07 in 10.0 mi North 3.5 mph - N/A   Partly Cloudy
7:58 AM 60.1 °F 48.0 °F 64% 30.08 in 10.0 mi Calm Calm - 0.00 in Rain Light Rain
8:58 AM 65.8 °F 47.8 °F 52% 30.09 in 10.0 mi South 4.6 mph - 0.00 in Rain Light Rain
9:58 AM 66.6 °F 49.8 °F 55% 30.09 in 10.0 mi South 4.6 mph - 0.00 in Rain Light Rain
10:58 AM 68.4 °F 51.4 °F 55% 30.09 in 10.0 mi South 5.8 mph - 0.00 in Rain Light Rain
11:11 AM 68.0 °F 51.8 °F 56% 30.07 in 10.0 mi South 6.9 mph - N/A   Overcast
11:19 AM 68.0 °F 51.8 °F 56% 30.07 in 10.0 mi South 4.6 mph - N/A Rain Light Rain
11:58 AM 70.2 °F 52.0 °F 52% 30.06 in 10.0 mi SSW 5.8 mph - 0.00 in Rain Light Rain
12:05 PM 69.8 °F 51.8 °F 53% 30.05 in 10.0 mi SW 6.9 mph - N/A   Scattered Clouds
12:58 PM 69.4 °F 52.5 °F 55% 30.03 in 10.0 mi South 8.1 mph - 0.00 in   Overcast
1:58 PM 71.4 °F 49.5 °F 46% 30.01 in 10.0 mi SW 10.4 mph - N/A   Mostly Cloudy
2:58 PM 70.3 °F 51.4 °F 51% 29.99 in 10.0 mi SW 8.1 mph - N/A   Clear
3:58 PM 68.9 °F 53.1 °F 57% 29.99 in 10.0 mi SW 5.8 mph - N/A   Partly Cloudy
4:58 PM 66.7 °F 52.9 °F 61% 29.98 in 10.0 mi SSW 5.8 mph - N/A   Partly Cloudy
5:58 PM 64.9 °F 54.3 °F 68% 29.98 in 10.0 mi SSW 3.5 mph - N/A   Clear
6:34 PM 64.4 °F 55.4 °F 73% 29.96 in 10.0 mi SSW 2.3 mph - N/A   Light Drizzle
6:47 PM 64.4 °F 55.4 °F 73% 29.97 in 10.0 mi WSW 1.2 mph - N/A   Scattered Clouds
6:58 PM 63.7 °F 55.6 °F 75% 29.98 in 10.0 mi WSW 1.2 mph - 0.00 in   Mostly Cloudy
7:22 PM 64.4 °F 55.4 °F 73% 29.97 in 10.0 mi South 4.6 mph - N/A Rain Light Rain
7:38 PM 62.6 °F 55.4 °F 77% 29.96 in 10.0 mi SSW 5.8 mph - N/A   Partly Cloudy
7:58 PM 62.1 °F 55.6 °F 79% 29.98 in 10.0 mi South 5.8 mph - 0.00 in   Partly Cloudy
8:58 PM 63.0 °F 56.8 °F 80% 29.98 in 10.0 mi WSW 3.5 mph - N/A   Clear
9:58 PM 62.8 °F 57.2 °F 82% 29.97 in 10.0 mi Calm Calm - N/A   Partly Cloudy
10:58 PM 59.0 °F 54.5 °F 85% 29.96 in 9.0 mi North 1.2 mph - N/A   Mostly Cloudy
11:58 PM 60.3 °F 55.8 °F 85% 29.93 in 10.0 mi Calm Calm - N/A   Overcast